Location: ?????????
(48.6069°N, 37.5313°E)
Time: 19:42:09
(UTC+00:00)

Daily predictions for brighter satellites

Satellite Brightness Start Highest point End
(mag) Time Altitude Azimuth Time Altitude Azimuth Time Altitude Azimuth
Cosmos 1110 Rocket 4.2 18:08:11 10° S 18:13:10 50° ESE 18:18:13 10° NNE
In-Cosmos 22 4.1 18:09:35 10° S 18:14:51 81° E 18:20:12 10° NNE
Cosmos 2100 Rocket 4.1 18:12:03 10° N 18:18:27 71° ENE 18:24:44 10° SSE
ATLAS 3B R/B 3.1 18:14:20 10° S 18:20:17 39° ESE 18:26:25 10° NE
Cosmos 1544 Rocket 4.0 18:15:56 10° N 18:20:18 49° ENE 18:24:36 10° SSE
Cosmos 1908 3.3 18:17:11 10° N 18:21:03 68° E 18:24:53 10° SSE
USA 81 4.4 18:18:10 10° N 18:23:25 70° W 18:28:38 10° S
NOSS 3-2 (C) 4.4 18:18:06 10° WSW 18:23:46 55° NW 18:30:24 10° NE
Cosmos 1455 Rocket 3.1 18:20:16 10° N 18:24:46 86° E 18:29:14 10° S
Cosmos 1626 2.7 18:21:44 10° SSE 18:25:12 40° E 18:28:41 10° NNE
ARIANE 5 R/B 3.0 18:23:56 10° SSE 18:28:17 55° ENE 18:32:42 10° N
FALCON 9 DEB 3.2 18:25:07 10° WSW 18:28:33 85° NNW 18:31:59 10° ENE
Cosmos 2173 Rocket 4.1 18:25:09 10° N 18:31:35 81° E 18:37:58 10° S
IGS 5A 4.4 18:28:41 10° S 18:32:41 45° W 18:36:43 10° NNW
Cosmos 1707 4.3 18:29:25 10° SW 18:33:03 38° WNW 18:36:43 10° N
Cosmos 1461 3.8 18:30:54 10° NW 18:34:52 41° WSW 18:38:39 10° S
Cosmos 2016 Rocket 4.2 18:29:26 10° N 18:35:29 60° ENE 18:41:31 10° SSE
ATLAS CENTAUR R/B 1.6 18:33:30 10° NW 18:37:51 88° NE 18:42:13 11° SE
Cosmos 1452 Rocket 4.4 18:34:44 10° SW 18:39:55 55° WNW 18:45:07 10° NNE
SL-8 R/B 4.4 18:35:45 10° W 18:40:14 40° SSW 18:44:24 11° SE
Meteor 2-5 Rocket 4.4 18:36:42 10° SSE 18:41:44 37° E 18:46:51 10° NNE
Cosmos 2219 Rocket 2.7 18:36:36 10° S 18:41:54 42° ESE 18:47:12 10° NE
Cosmos 2333 Rocket 2.5 18:37:23 10° S 18:42:53 49° ESE 18:48:23 10° NE
Cosmos 405 3.3 18:39:46 10° N 18:43:08 48° ENE 18:46:05 13° SSE
OPS 8737 4.5 18:41:06 10° SSW 18:45:05 59° SE 18:48:11 10° NE
SL-4 R/B 3.5 18:43:26 10° S 18:46:06 16° SE 18:48:40 10° E
Cosmos 1844 4.0 18:43:05 10° NNW 18:48:37 65° WSW 18:54:09 10° SSE
ERS-1 Rocket 3.1 18:44:08 11° SSE 18:49:02 68° ENE 18:54:04 10° N
Geosat 4.1 18:44:27 11° SE 18:49:15 75° ENE 18:54:17 10° NNW
Cosmos 1725 Rocket 4.1 18:43:41 10° N 18:49:51 66° ENE 18:55:46 11° SSE
Cosmos 1025 Rocket 3.0 18:48:22 10° S 18:52:45 86° E 18:57:08 10° N
Spot 2 Rocket 3.6 18:48:35 10° SSE 18:53:39 79° WSW 18:58:46 10° NNW
FALCON 9 DEB 3.1 18:52:10 10° SW 18:55:10 45° SSE 18:58:12 10° ENE
Lacrosse 5 rocket 1.0 18:51:30 10° SW 18:55:12 83° NNW 18:58:48 10° NE
Cosmos 1536 Rocket 3.9 18:51:09 10° S 18:55:27 51° E 18:59:46 10° NNE
DNEPR-1 R/B 3.5 18:51:18 10° NW 18:55:32 78° SW 18:59:17 14° SSE
Cosmos 1331 Rocket 4.2 18:51:49 10° SSW 18:57:04 80° WNW 19:02:24 10° NNE
CENTAUR R/B 4.3 18:51:10 10° W 18:57:06 39° NNW 19:04:06 10° NE
Cosmos 2228 4.3 18:53:19 10° N 18:57:13 29° ENE 19:00:27 13° SE
BREEZE-M DEB (TANK) 2.0 18:59:54 10° SW 19:02:18 44° SSE 19:06:52 10° ENE
Cosmos 2237 Rocket 3.6 19:00:12 13° SE 19:03:12 20° E 19:07:06 10° NE
SPOT 1/Viking Rocket 4.4 19:01:06 10° S 19:06:00 45° W 19:10:57 10° NNW
Cosmos 2360 Rocket 2.9 19:00:36 10° SW 19:06:10 59° WNW 19:11:46 10° NNE
Terra 1.9 19:02:26 14° SSE 19:06:28 69° ENE 19:11:13 10° N
CARTOSAT-1 4.0 19:03:11 10° S 19:07:26 59° W 19:11:43 10° NNW
SL-14 R/B 3.3 19:06:24 10° S 19:10:26 88° E 19:14:28 10° N
Cosmos 1802 Rocket 4.3 19:04:14 10° NNW 19:10:28 68° W 19:16:46 10° S
Cosmos 2322 Rocket 3.9 19:05:14 10° WSW 19:10:30 37° NW 19:15:47 10° NNE
SL-16 R/B 4.3 19:05:40 10° WSW 19:10:38 31° NW 19:15:39 10° NNE
FALCON 9 DEB 2.7 19:07:48 10° WSW 19:10:53 79° SSE 19:14:00 10° ENE
Cosmos 1674 4.5 19:09:58 10° SW 19:13:17 30° WNW 19:16:36 10° N
SPOT 5 3.0 19:09:02 13° S 19:13:40 77° WSW 19:18:31 10° NNW
Meteor 1-24 Rocket 3.9 19:09:15 13° S 19:13:57 54° E 19:19:20 10° NNE
Cosmos 1953 4.1 19:12:06 10° NNW 19:15:34 28° W 19:19:02 10° SSW
Cosmos 1455 3.9 19:15:00 10° NNE 19:18:01 22° ENE 19:20:14 14° ESE
Cosmos 1302 Rocket 4.0 19:13:05 10° SSW 19:18:20 82° ESE 19:23:37 10° NNE
FALCON 9 DEB 2.7 19:15:39 10° SW 19:18:46 73° SSE 19:21:53 10° ENE
H-2A R/B 3.7 19:16:33 10° NNE 19:20:32 49° E 19:23:25 17° S
FALCON 9 DEB 2.8 19:18:18 10° WSW 19:21:25 88° S 19:24:32 10° ENE
USA 267 4.2 19:17:24 10° E 19:23:38 49° NNE 19:29:52 10° WNW
Resurs 01 Rocket 4.2 19:26:14 10° WSW 19:28:32 14° W 19:30:51 10° WNW
Cosmos 1300 3.0 19:24:47 10° NNW 19:28:33 61° W 19:31:24 17° S
Cosmos 2322 3.9 19:27:57 10° SW 19:33:36 74° WNW 19:39:17 10° NNE
Cosmos 2278 Rocket 2.4 19:29:16 10° NNW 19:34:56 69° ENE 19:39:05 19° SE
COSMOS 2428 2.7 19:29:25 10° SSW 19:35:10 83° ESE 19:40:58 10° NNE
Cosmos 1844 Rocket 4.4 19:31:08 10° NW 19:35:38 25° WSW 19:40:08 10° SSW
Cosmos 1340 3.8 19:33:36 10° SSW 19:37:12 43° WNW 19:40:50 10° N
NOSS 0 Rocket 4.2 19:34:04 14° S 19:39:13 49° ESE 19:45:13 10° NE
BREEZE-M DEB (TANK) 4.2 19:43:46 10° WSW 19:44:39 11° SW 19:44:53 11° SW
Cosmos 1867 3.7 19:39:11 10° NW 19:44:39 68° SW 19:48:15 22° SSE
Cosmos 1726 Rocket 3.8 19:42:49 10° N 19:47:15 59° ENE 19:49:48 24° SSE
Cosmos 2058 Rocket 4.0 19:43:16 10° N 19:47:26 37° ENE 19:49:52 21° SE
GENESIS II 4.4 19:45:12 20° S 19:47:33 46° ESE 19:51:18 10° NE
Cosmos 389 Rocket 2.3 19:45:24 10° NNW 19:48:51 88° W 19:50:30 29° S
Cosmos 968 Rocket 3.9 19:45:03 10° NNW 19:50:02 54° WSW 19:53:29 19° S
Cosmos 1486 Rocket 4.2 19:50:04 10° NNW 19:55:15 64° WSW 19:58:33 22° S
Cosmos 2233 Rocket 4.3 19:50:06 10° NNW 19:56:11 65° W 20:00:59 17° S
Uosat 12 SS-18 rocket 4.3 19:52:28 10° SW 19:56:54 79° NW 20:02:05 10° NE
Meteor 2-10 Rocket 3.6 19:53:08 10° NNW 19:58:11 68° W 20:01:28 21° S
SJ 16-02 3.4 19:56:55 10° N 20:00:11 20° NE 20:03:25 10° ESE
Cosmos 1943 Rocket 3.7 19:56:01 10° NNW 20:00:43 28° NE 20:05:24 10° ESE
Cosmos 1992 Rocket 3.9 19:57:54 15° SSW 20:02:17 84° ESE 20:07:33 10° NNE
Cosmos 1606 Rocket 3.6 19:58:24 10° NNW 20:02:53 78° W 20:05:25 25° S
Spot 4 4.2 20:02:03 23° SE 20:04:51 55° ENE 20:09:31 10° N
Cosmos 1892 Rocket 3.6 20:06:51 27° S 20:09:07 65° E 20:13:33 10° NNE
ATLAS 3B R/B 3.3 20:04:16 10° WSW 20:10:45 57° NW 20:17:30 10° NE
BREEZE-M DEB (TANK) 3.6 20:07:47 10° W 20:10:59 83° N 20:20:43 10° E
Cosmos 1354 Rocket 4.0 20:06:08 10° NNW 20:11:31 90° NE 20:14:37 26° SSE
ATLAS CENTAUR R/B 3.6 20:10:25 24° S 20:13:12 41° ESE 20:23:41 10° NE
Cosmos 1980 3.7 20:09:27 18° SSW 20:13:40 70° ESE 20:19:21 10° NNE
Cosmos 1346 Rocket 3.3 20:11:37 18° SSW 20:14:24 56° WNW 20:18:23 10° N
ATLAS CENTAUR R/B 3.8 20:13:51 10° W 20:16:12 14° WSW 20:18:22 11° SW
Meteor 1-4 Rocket 3.9 20:14:03 10° N 20:17:05 27° ENE 20:18:21 22° ESE
Cosmos 1441 Rocket 3.7 20:19:40 33° SE 20:20:54 44° E 20:24:33 10° NNE
ALOS 2 3.3 20:20:30 24° SE 20:22:45 46° ENE 20:26:58 10° N
Cosmos 1607 4.1 20:18:41 10° NW 20:25:04 67° WSW 20:28:47 26° SSE
SL-4 R/B 1.8 20:21:10 10° SW 20:25:13 66° SSE 20:28:59 10° ENE
Cosmos 2219 Rocket 3.6 20:20:36 10° WSW 20:25:53 39° NW 20:31:13 10° NNE
Cosmos 2333 Rocket 3.8 20:22:08 10° WSW 20:27:21 35° NW 20:32:35 10° NNE
FALCON 9 DEB 4.0 20:27:53 10° W 20:30:55 45° NNW 20:33:57 10° ENE
USA 215 3.3 20:25:18 10° ENE 20:31:43 56° SE 20:38:07 10° SW
Lacrosse 5 rocket 3.4 20:31:36 10° WNW 20:34:40 26° NNW 20:37:44 10° NE
Cosmos 2228 4.4 20:30:51 10° NNW 20:34:44 31° W 20:37:16 17° SW
Cosmos 1703 3.3 20:33:24 37° SSE 20:34:49 67° E 20:38:46 10° NNE
Cosmos 2346 Rocket 4.5 20:32:07 26° S 20:35:44 72° E 20:41:56 10° NNE
Meteor 2-1 Rocket 4.2 20:31:15 10° NNW 20:36:48 84° W 20:39:51 28° S
Cosmos 1626 Rocket 4.1 20:35:13 30° SE 20:36:53 44° E 20:41:07 10° NNE
Iridium 2 4.4 20:37:30 25° SW 20:39:19 47° W 20:42:57 10° N
SL-16 R/B 2.7 20:42:05 28° SSE 20:44:29 42° ESE 20:49:48 10° NE
Terra 4.0 20:41:43 10° SW 20:44:43 16° W 20:47:43 10° NW
Cosmos 1602 Rocket 4.4 20:43:27 28° SE 20:45:04 39° E 20:49:15 10° NNE
COBE Rocket 3.9 20:42:41 30° S 20:45:12 87° W 20:50:08 10° NNW
Cosmos 1464 Rocket 4.1 20:39:33 10° NNW 20:45:55 73° W 20:49:44 26° S
Cosmos 2237 Rocket 2.3 20:41:59 16° SW 20:46:37 75° WNW 20:52:16 10° NNE
FALCON 9 DEB 4.5 20:43:46 10° WNW 20:46:42 37° N 20:49:37 10° ENE
Cosmos 1455 3.5 20:50:15 10° NNW 20:53:40 32° W 20:55:06 24° SW
Cosmos-2242 4.3 20:50:35 10° N 20:54:35 32° ENE 20:56:44 21° ESE
FALCON 9 DEB 4.4 20:51:41 10° W 20:54:38 38° N 20:57:35 10° ENE
Cosmos 2369 Rocket 3.5 20:49:23 10° NNW 20:54:40 36° NE 20:59:55 10° ESE
Cosmos 1328 3.7 20:55:28 42° S 20:56:41 73° E 21:00:35 10° NNE
Cosmos 1184 Rocket 3.9 20:57:03 27° WSW 20:58:15 37° WNW 21:01:19 10° N
GEOS 3 Rocket 3.8 20:57:02 30° SSE 20:59:39 59° SW 21:04:56 10° NW
NOSS 2-3 (D) 4.5 21:03:44 29° SE 21:04:17 30° ESE 21:08:18 10° ENE
USA 267 3.2 20:59:48 10° ESE 21:06:21 89° NE 21:12:57 10° NW
Cosmos 1816 Rocket 4.4 21:03:12 28° S 21:06:39 87° E 21:12:49 10° N
Aureole 3 3.9 21:06:30 10° N 21:10:17 55° E 21:12:16 30° SE
USA 32 4.0 21:05:04 10° N 21:10:21 80° E 21:12:52 32° SSE
Elektron 1 3.6 21:11:02 10° NW 21:14:05 75° SW 21:14:26 63° SSE
Cosmos 2278 Rocket 3.8 21:14:16 10° NW 21:18:28 22° W 21:20:55 17° SW
Okean 1-7 Rocket 4.4 21:16:49 24° SW 21:19:09 44° WNW 21:23:25 10° N
Cosmos 1812 Rocket 3.5 21:16:13 10° N 21:20:36 86° W 21:22:13 38° S
NOSS 2-3 (C) 4.0 21:19:58 37° SSE 21:20:56 43° ESE 21:25:27 10° NE
Cosmos 2297 3.7 21:15:48 10° NNW 21:21:27 74° WSW 21:24:16 31° SSE
Cosmos 2034 Rocket 4.3 21:15:56 10° NNW 21:21:56 55° W 21:25:17 26° SSW
Thor Agena Rocket 3.7 21:21:37 10° NNE 21:26:50 63° ESE 21:29:11 32° S
Resurs 1-4 Rocket 4.4 21:31:53 10° ENE 21:33:52 12° E 21:35:52 10° ESE
SAR-Lupe-2 3.6 21:30:37 10° N 21:34:13 72° WNW 21:35:14 43° SW
Cosmos 1174 4.4 21:34:19 24° SW 21:37:45 86° WNW 21:42:22 10° NE
SJ 16-02 1.5 21:34:49 10° NNW 21:39:07 55° WSW 21:40:30 38° SSW
CZ-3B R/B 4.2 21:22:12 10° W 21:39:23 55° NNW 21:43:41 10° ENE
Meteor 1-11 4.2 21:37:41 29° SSW 21:40:37 78° WNW 21:46:14 10° N
Meteor 1-27 4.1 21:36:27 10° NNW 21:42:03 90° WNW 21:44:55 30° S
FALCON 9 DEB 4.0 21:39:39 10° WNW 21:43:00 50° NNE 21:46:20 10° E
In-Cosmos 22 Rocket 4.4 21:41:53 29° SSE 21:44:36 58° E 21:49:57 10° NNE
Cosmos 1943 Rocket 2.2 21:39:25 10° NNW 21:44:52 61° WSW 21:47:24 31° S
GP-B 3.2 21:42:24 10° N 21:46:49 65° W 21:48:34 35° SSW
Cosmos 2142 Rocket 4.5 21:43:25 10° N 21:49:35 83° E 21:53:09 27° SSE
Cosmos 1825 Rocket 3.6 21:48:07 37° S 21:49:50 75° E 21:54:18 10° NNE
Meteor 1-4 Rocket 4.2 21:49:18 10° NW 21:51:54 20° W 21:52:29 19° WSW
Tsikada Rocket 4.4 21:49:24 23° SW 21:53:09 55° WNW 21:59:12 10° N
USA 229 DEB 3.6 21:51:22 27° SSW 21:55:00 67° SE 22:01:47 10° NE
USA 229 3.6 21:51:30 27° SSW 21:55:05 66° SE 22:01:53 10° NE
CZ-2D R/B 4.1 21:52:20 10° NE 21:55:45 17° E 21:59:03 10° SE
Cosmos 1892 2.7 21:55:20 43° S 21:56:30 79° E 22:00:24 10° NNE
NOSS 8 (F) 4.0 21:57:00 62° SSW 21:57:25 79° SE 22:00:23 10° NE
Cosmos 1943 3.9 21:54:58 26° SSE 21:57:27 40° ESE 22:02:42 10° NE
X-37B 2.9 22:00:55 15° ESE 22:00:55 15° ESE 22:01:33 10° ESE
Helios 1A 4.1 21:55:56 18° SE 21:58:34 39° ENE 22:02:30 10° N
ALOS 2 4.3 21:57:53 18° WSW 21:59:18 21° W 22:02:41 10° NW
Cosmos 1437 Rocket 3.7 21:56:18 10° N 22:00:01 41° ENE 22:01:53 24° SE
Cosmos 990 Rocket 3.9 21:54:51 10° NNW 22:00:05 85° WSW 22:02:49 29° SSE
BREEZE-M DEB (TANK) 1.9 21:55:49 10° W 22:00:48 88° NNW 22:03:09 10° E
Cosmos 1869 3.3 21:57:06 10° NNW 22:01:13 80° W 22:02:37 40° S
NOSS 3-1 (C) 3.4 21:59:24 21° SW 22:03:11 78° NW 22:09:40 10° NE
Lacrosse 4 Rocket 3.4 22:01:07 10° NNW 22:04:39 27° NE 22:08:07 10° ESE
SL-4 R/B 2.5 22:01:03 10° W 22:04:53 55° N 22:08:27 10° ENE
EO 1 Del DPAF 3.2 22:02:57 10° NNE 22:06:41 71° ESE 22:07:48 42° S
Cosmos 1603 4.1 22:04:19 28° S 22:07:01 50° ESE 22:12:28 10° NE
SL-16 R/B 3.8 22:02:17 10° SE 22:07:51 37° ENE 22:13:25 10° N
NOSS 2-3 (E) 3.8 22:11:09 25° SW 22:13:31 71° NW 22:18:31 10° NE
Lacrosse 5 rocket 3.7 22:11:44 10° NW 22:14:38 22° N 22:17:32 10° ENE
NOSS 3-1 (A) 3.2 22:11:32 27° SSW 22:14:39 80° SE 22:21:03 10° NE
USA 215 3.7 22:08:23 10° NE 22:14:50 64° NNW 22:21:16 10° WSW
Cosmos 1937 Rocket 3.6 22:09:52 10° NNW 22:15:14 78° ENE 22:18:53 21° SSE
Cosmos 1953 Rocket 3.5 22:13:32 35° S 22:15:20 89° E 22:19:47 10° N
Cosmos 1898 Rocket 3.4 22:11:07 10° NNW 22:16:22 79° WSW 22:19:15 27° SSE
Cosmos 1242 Rocket 3.8 22:15:51 10° N 22:19:13 36° ENE 22:21:17 19° SE
Cosmos 1408 2.7 22:18:54 40° SSW 22:20:01 66° W 22:23:43 10° N
CZ-4 R/B 4.2 22:16:07 10° NNE 22:20:41 53° E 22:22:59 27° SSE
Cosmos 1825 2.2 22:19:42 39° S 22:20:58 71° E 22:24:45 10° NNE
USA 306 4.1 22:20:41 25° SE 22:21:08 25° SE 22:24:38 10° E
FALCON 9 DEB 4.2 22:19:44 10° WNW 22:22:43 41° NNE 22:25:40 10° E
Cosmos 1656 Rocket 3.7 22:17:34 10° NNW 22:23:18 87° WSW 22:27:23 20° SSE
NOSS 8 (H) 4.0 22:23:41 54° SW 22:24:18 85° SE 22:27:15 10° NE
Cosmos 1356 3.7 22:25:32 39° SW 22:26:27 54° WNW 22:29:49 10° N
SL-16 R/B 3.3 22:23:55 12° WSW 22:28:40 38° NW 22:33:58 10° NNE
FALCON 9 DEB 4.3 22:27:46 10° WNW 22:30:45 40° NNE 22:33:43 10° E
Cosmos-2242 4.3 22:28:17 10° NNW 22:32:02 28° W 22:33:34 22° WSW
Cosmos 921 Rocket 3.8 22:30:50 25° SSE 22:32:40 39° ESE 22:36:34 10° NE
FALCON 9 DEB 4.1 22:30:19 10° WNW 22:33:19 44° NNE 22:36:19 10° E
Cosmos 1842 Rocket 3.6 22:29:20 10° N 22:33:41 75° E 22:36:06 26° SSE
Cosmos 405 Rocket 2.7 22:35:09 37° SW 22:36:26 65° WNW 22:40:07 10° N
Cosmos 2279 Rocket 4.4 22:30:54 10° NNW 22:36:54 50° W 22:40:23 24° SSW
Cosmos 2369 Rocket 2.6 22:33:24 10° NW 22:38:51 46° WSW 22:41:39 26° SSW
Cosmos 468 Rocket 4.3 22:42:30 24° SW 22:45:37 60° WNW 22:50:49 10° NNE
Cosmos 372 Rocket 4.0 22:42:04 10° NNW 22:47:21 84° ENE 22:51:45 15° SSE
ATLAS 5 CENTAUR R/B 2.4 22:47:38 24° SSE 22:49:08 32° ESE 22:53:00 10° NE
USA 267 3.9 22:46:54 23° S 22:49:52 32° SW 22:55:39 10° WNW
Cosmos 1570 Rocket 4.5 22:47:10 23° S 22:50:13 52° ESE 22:55:17 10° NNE
Cosmos 1076 Rocket 4.0 22:47:53 24° SSE 22:50:14 53° E 22:54:23 10° NNE
USA 290 3.4 22:49:57 25° SE 22:51:01 32° ESE 22:53:55 10° NE
Cosmos 1633 3.3 22:50:06 24° SSE 22:51:46 43° E 22:55:08 10° NNE
Cosmos 2058 2.9 22:50:55 30° SSW 22:52:47 68° W 22:56:53 10° N
Cosmos 1763 Rocket 4.1 22:55:46 20° SW 22:59:04 47° WNW 23:04:03 10° NNE
NOSS 2-2 (D) 3.9 22:58:39 27° SSE 22:59:49 36° ESE 23:03:12 10° NE
Cosmos 2221 2.7 22:57:33 10° NNW 23:01:46 54° W 23:03:51 27° SSW
Cosmos 2098 Rocket 3.3 22:59:51 24° SSW 23:03:01 76° W 23:07:20 10° N
MOZ.5/SAFIR/RUBIN 5/SL-8 3.9 23:00:35 24° S 23:03:20 60° W 23:08:05 10° NNW
USA 307 3.3 23:03:09 28° SSW 23:05:01 47° SE 23:09:06 10° ENE
BREEZE-M DEB (TANK) 4.2 22:59:57 10° WNW 23:05:19 80° SSW 23:26:49 10° ESE
Cosmos 2208 Rocket 4.4 23:03:12 21° S 23:06:45 60° ESE 23:12:07 10° NNE
OE (NEXTSAT) 4.4 23:05:55 25° WSW 23:07:38 54° S 23:11:01 10° E
Meteor 2-15 4.4 23:02:31 10° NNW 23:08:42 82° W 23:13:38 16° S
Cosmos 1606 2.7 23:07:52 10° NNW 23:11:41 62° W 23:13:40 26° S
CREW DRAGON DEMO-1 DEB 3.3 23:10:08 16° W 23:11:51 44° N 23:14:12 10° ENE
Cosmos 1437 2.2 23:11:25 10° NNW 23:14:13 73° W 23:15:12 35° S
Nadezhda 4 Rocket 4.2 23:10:11 21° SSW 23:14:19 60° WNW 23:20:24 10° N
Resurs 1-4 Rocket 2.2 23:09:13 10° NNE 23:14:33 78° ESE 23:18:23 20° S
Cosmos 2026 Rocket 4.2 23:10:41 17° S 23:15:40 73° E 23:22:01 10° NNE
AQUA 4.3 23:12:28 10° NNE 23:17:09 53° E 23:20:46 16° S
Helios 1B rocket 2.7 23:15:26 10° NNE 23:19:30 63° ESE 23:22:14 20° S
FALCON 9 DEB 3.4 23:16:37 10° WNW 23:19:52 43° SW 23:23:06 10° SE
USA 308 3.0 23:18:32 24° SW 23:20:58 59° SE 23:25:09 10° ENE
ADEOS II 2.9 23:19:14 10° NNE 23:24:19 46° E 23:28:57 12° S
Cosmos 1933 3.5 23:24:50 10° N 23:28:56 74° ENE 23:32:42 12° SSE
MINOTAUR 4 R/B 4.4 23:25:44 11° SSE 23:29:02 65° ENE 23:32:34 10° N
NPP 3.7 23:25:44 10° NNE 23:31:11 85° ESE 23:35:26 17° SSW
Helios 1A 4.4 23:32:32 18° SW 23:34:14 23° W 23:37:37 10° NW
X-37B 1.2 23:33:13 20° WSW 23:34:52 34° SSW 23:37:47 10° SE
Cosmos 540 Rocket 4.3 23:32:30 16° SW 23:36:18 41° WNW 23:41:10 10° NNE
CZ-2D R/B 2.1 23:31:10 10° NNE 23:36:22 73° WNW 23:40:23 17° SSW
IDEFIX/ARIANE 42P 3.9 23:32:14 10° NNE 23:36:59 33° E 23:41:40 10° SSE
USA 305 2.8 23:35:05 18° SW 23:38:14 80° SSE 23:42:30 10° ENE
NOSS 2-2 (E) 3.2 23:36:08 20° SW 23:38:24 72° NW 23:42:18 10° NE
Landsat 4 4.4 23:35:40 10° NNE 23:39:21 48° E 23:42:28 13° S
USA 281 3.9 23:34:57 10° SE 23:41:21 57° NE 23:47:47 10° NNW
Cosmos 1943 4.1 23:36:45 12° WSW 23:41:31 39° NW 23:46:50 10° NNE
FALCON 9 DEB 2.8 23:39:51 10° WNW 23:43:00 88° NNE 23:46:07 10° ESE
Lacrosse 4 Rocket 1.7 23:39:35 10° NW 23:43:27 41° WSW 23:46:46 13° S
Aureole 3 Rocket 3.8 23:40:49 10° NNW 23:44:34 39° W 23:48:22 16° SSW
SL-4 R/B 2.1 23:41:02 10° WNW 23:44:43 64° NNE 23:48:12 10° E
Meteor 2-3 Rocket 3.8 23:41:21 13° S 23:46:18 79° E 23:51:54 10° NNE
Cosmos 841 Rocket 4.4 23:44:06 14° WSW 23:48:10 39° WNW 23:53:00 10° N
SL-16 R/B 2.9 23:46:03 13° S 23:51:20 47° W 23:57:17 10° NNW
DELTA 2 R/B (1) 4.3 23:47:09 11° WSW 23:51:42 32° S 23:56:36 10° ESE
NOSS 2-2 (C) 3.2 23:49:46 17° SW 23:52:18 68° NW 23:56:08 10° NE
IRS-1D 3.9 23:47:17 10° NNE 23:52:24 62° ESE 23:57:22 10° S
Cosmos 1151 Rocket 3.3 23:48:27 10° N 23:52:44 69° E 23:56:57 10° SSE
Cosmos 1242 Rocket 4.4 23:51:21 10° NW 23:53:45 17° W 23:55:13 14° WSW
Lacrosse 5 rocket 1.9 23:50:47 10° NW 23:54:19 52° NNE 23:57:55 10° ESE
UNK 4.4 23:51:07 16° SSW 23:54:28 39° W 23:58:50 10° NNW
